Portland International Airport
KPDX : now visible

Airfield :











YOU CAN JOIN US ON...

 
LOGIN :

Register | Disclaimer

   EN    FR    IT 

 









Legend :    VFR   Marginal VFR   IFR   Intensive IFR   Very Intensive IFR
Visi :
Ceiling :
>= 8 km
>= 3000ft
5 to 8 km
1000 to 3000 ft
1500m to 5 km
500 to 1000 ft
800 to 1500m
200 to 500 ft
< 800m
< 200 ft
Symbols :   Thunderstorms  Fog  Heavy snow  Heavy precipitations  Wind > 20 kt






- Airport Elevation : 31 ft
- IATA code : PDX


KPDX - Portland International

CURRENT METAR :
  • 270353Z 24012KT 10SM BKN075 BKN090 06/02 A3011 RMK AO2 RAB11E24 SLP196 P0000 T00560017

EXPIRED METARs :
  • 270253Z 27015KT 10SM FEW033 SCT045 BKN065 06/01 A3013 RMK AO2 RAB37E51 SLP201 P0000 60000 T00610011 55000
  • 270153Z 26010KT 10SM FEW045 SCT085 06/02 A3012 RMK AO2 SLP198 T00610017

TAF KPDX
Valid from the 27 at 03:00 until the 28 at 00:00 UTC


270241Z 2703/2724 26010KT P6SM VCSH FEW045 SCT090
FM271200 26005KT P6SM SCT040
KZSE FIR / North America



MET'MAP, your aeronautical weather chart ! - Copyright ORBIFLY December 2007 - Disclaimer

ORBIFLY MET'MAP TEAM :

Programming & Development : Alexandra Zaïnal
Concept & original design : Baudouin d'Aumeries
Assistance for programming : Marc-Olivier Méhu
Technical & hardware support : Manuel Goepfert

Contact : metmap@orbifly.com




SOURCES & CREDITS :

   NOAA       Earth
Advisory